Location: Stanford
(52.2833°N, 2.4333°W)
Time: 02:13:49
(UTC+00:00)

Cosmos 1538 Rocket - Pass Details

Date: 22 January 2021
Orbit: 753 x 791 km, 74.0° (Epoch: 28 February)

Event Time Altitude Azimuth Distance (km) Brightness Sun altitude
Rises 17:35:53 0° 334° (NNW) 3,222 7.3 -8.6°
Reaches altitude 10° 17:38:16 10° 335° (NNW) 2,291 6.5 -9.0°
Maximum altitude 17:43:28 85° 64° (ENE) 764 3.9 -9.7°
Drops below altitude 10° 17:48:38 10° 154° (SSE) 2,275 6.4 -10.5°
Sets 17:50:59 0° 155° (SSE) 3,199 7.1 -10.8°
